GW3608 Weather Reports


Display with metric or nautical units.
time (UTC)temp
F
wind
direction
speed
MPH
gust
MPH
rain 1hr
in
rain 24hr
in
rain mn
in
humidity
%
barometer
mb
20260901051517 64 293 0.0 0.0 0.00 0.46 0.00 95 1018.2
20260901050022 65 293 0.0 0.0 0.00 0.46 0.00 96 1018.3
20260901044524 65 293 0.0 0.0 0.00 0.46 0.00 95 1018.4
20260901043008 65 293 0.0 0.0 0.00 0.46 0.00 96 1018.6
20260901041510 66 293 0.0 0.0 0.00 0.46 0.00 96 1018.5
20260901040024 66 293 0.0 0.0 0.00 0.46 0.00 96 1018.3
20260901034525 65 293 0.0 0.0 0.00 0.46 0.46 96 1018.5
20260901033025 65 293 0.0 0.0 0.00 0.46 0.46 96 1018.5
20260901031511 65 293 0.0 0.0 0.00 0.46 0.46 96 1018.5
20260901030015 66 293 0.0 0.0 0.00 0.46 0.46 96 1018.5
20260901024518 66 293 0.0 0.0 0.00 0.46 0.46 95 1018.6
20260901023037 66 293 0.0 0.0 0.00 0.46 0.46 95 1018.8
20260901021528 66 293 0.0 0.0 0.00 0.46 0.46 95 1018.9
20260901020011 66 293 0.0 0.0 0.02 0.46 0.46 95 1018.8
20260901014516 66 293 0.0 0.0 0.03 0.46 0.46 95 1019.0
20260901013024 66 293 0.0 0.0 0.03 0.46 0.46 95 1019.1
20260901011529 66 293 0.0 0.0 0.04 0.46 0.46 95 1019.1
20260901010032 66 293 0.0 0.0 0.03 0.44 0.44 95 1019.0
20260901004516 66 293 0.0 0.0 0.02 0.43 0.43 95 1018.9
20260901003020 65 293 0.0 0.0 0.02 0.43 0.43 95 1018.7
20260901001527 66 293 0.0 0.0 0.01 0.42 0.42 95 1018.5
20260901000035 66 293 0.0 0.0 0.00 0.41 0.41 95 1018.7
20260831234532 66 293 0.0 0.0 0.00 0.41 0.41 95 1018.7
20260831233017 66 293 0.0 0.0 0.00 0.41 0.41 95 1018.8
20260831231531 66 293 0.0 0.0 0.01 0.41 0.41 95 1018.9
20260831230010 66 293 0.0 0.0 0.02 0.41 0.41 95 1019.1
20260831224507 66 293 0.0 0.0 0.02 0.41 0.41 95 1019.2
20260831223016 66 293 0.0 0.0 0.03 0.41 0.41 95 1019.4
20260831221524 66 293 0.0 0.0 0.02 0.40 0.40 95 1019.5
20260831220003 66 293 0.0 0.0 0.01 0.39 0.39 95 1019.7
20260831214507 66 293 0.0 0.0 0.02 0.39 0.39 95 1019.7
20260831213010 66 293 0.0 0.0 0.02 0.38 0.38 95 1019.8
20260831211517 66 293 0.0 0.0 0.02 0.38 0.38 95 1019.8
20260831210028 66 293 0.0 0.0 0.02 0.38 0.38 95 1019.7
20260831204504 66 293 0.0 0.0 0.06 0.37 0.37 94 1019.7
20260831203008 66 25 0.0 0.0 0.06 0.36 0.36 95 1019.8
20260831201515 66 9 0.0 0.0 0.06 0.36 0.36 94 1019.9
20260831200025 65 9 0.0 0.0 0.06 0.36 0.36 94 1020.0
20260831194546 65 275 0.0 0.0 0.02 0.31 0.31 94 1019.9
20260831193008 65 224 0.0 0.0 0.01 0.30 0.30 94 1020.0
20260831191518 65 173 0.0 0.0 0.01 0.30 0.30 94 1020.3
20260831190021 65 178 0.0 0.0 0.02 0.30 0.30 94 1020.5
20260831184526 65 321 0.0 0.0 0.02 0.29 0.29 94 1020.7
20260831183028 64 137 0.0 0.0 0.05 0.29 0.29 94 1020.7
20260831181509 64 167 0.0 0.0 0.07 0.29 0.29 94 1020.9
20260831180012 64 164 0.0 0.0 0.11 0.28 0.28 94 1021.1
20260831174526 64 144 0.0 0.0 0.11 0.27 0.27 93 1021.4
20260831173024 64 223 0.0 0.0 0.11 0.24 0.24 93 1021.6
20260831171528 64 190 0.0 0.0 0.15 0.22 0.22 93 1021.7
20260831170010 64 192 0.0 0.0 0.17 0.17 0.17 93 1021.7
20260831164515 64 159 0.0 0.0 0.16 0.16 0.16 92 1021.9
20260831163032 65 159 0.0 0.0 0.13 0.13 0.13 91 1022.0
20260831161528 66 110 0.0 0.0 0.07 0.07 0.07 89 1022.2
20260831160030 66 110 0.0 0.0 0.00 0.00 0.00 86 1022.1
20260831154535 66 140 0.0 0.0 0.00 0.00 0.00 84 1021.8
20260831153024 66 140 0.0 0.0 0.00 0.00 0.00 84 1021.8
20260831151524 66 140 0.0 0.0 0.00 0.00 0.00 85 1021.8
20260831150027 66 255 0.0 0.0 0.00 0.00 0.00 85 1021.7
20260831144535 66 130 0.0 0.0 0.00 0.00 0.00 85 1021.7
20260831143028 66 133 0.0 0.0 0.00 0.00 0.00 86 1021.9
20260831141544 65 98 0.0 0.0 0.00 0.00 0.00 86 1021.8
20260831140006 65 114 0.0 0.0 0.00 0.00 0.00 87 1021.7
20260831134506 65 149 0.0 0.0 0.00 0.00 0.00 88 1021.8
20260831133023 64 26 0.0 0.0 0.00 0.00 0.00 89 1022.1
20260831131517 63 140 0.0 0.0 0.00 0.00 0.00 92 1022.0
20260831130003 63 261 0.0 0.0 0.00 0.00 0.00 94 1022.1
20260831124507 62 30 0.0 0.0 0.00 0.00 0.00 95 1022.0
20260831123012 62 5 0.0 0.0 0.00 0.00 0.00 95 1022.0
20260831121515 61 338 0.0 0.0 0.00 0.00 0.00 95 1022.2
20260831120028 61 338 0.0 0.0 0.00 0.00 0.00 95 1022.1
20260831114505 60 338 0.0 0.0 0.00 0.00 0.00 95 1022.1
20260831113008 60 289 0.0 0.0 0.00 0.00 0.00 95 1022.0
20260831111513 60 289 0.0 0.0 0.00 0.00 0.00 95 1022.0
20260831110021 59 289 0.0 0.0 0.00 0.00 0.00 94 1021.5
20260831104526 60 289 0.0 0.0 0.00 0.00 0.00 95 1021.5
20260831103003 60 289 0.0 0.0 0.00 0.00 0.00 95 1021.2
20260831101508 59 289 0.0 0.0 0.00 0.00 0.00 94 1021.3
20260831100013 59 289 0.0 0.0 0.00 0.00 0.00 94 1021.4
20260831094524 60 289 0.0 0.0 0.00 0.00 0.00 94 1021.4
20260831093027 59 289 0.0 0.0 0.00 0.00 0.00 95 1021.5
20260831091509 58 290 0.0 0.0 0.00 0.00 0.00 94 1021.6
20260831090011 58 290 0.0 0.0 0.00 0.00 0.00 94 1021.2
20260831084522 59 281 0.0 0.0 0.00 0.00 0.00 94 1021.0
20260831083022 58 281 0.0 0.0 0.00 0.00 0.00 94 1021.3
20260831081529 59 218 0.0 0.0 0.00 0.00 0.00 93 1021.1
20260831080010 59 218 0.0 0.0 0.00 0.00 0.00 93 1021.1
20260831074517 59 218 0.0 0.0 0.00 0.00 0.00 93 1021.3
20260831073025 59 218 0.0 0.0 0.00 0.00 0.00 93 1021.2
20260831071528 60 218 0.0 0.0 0.00 0.00 0.00 93 1021.2
20260831070036 60 218 0.0 0.0 0.00 0.00 0.00 92 1021.3
20260831064513 61 218 0.0 0.0 0.00 0.00 0.00 92 1021.2
20260831063018 61 218 0.0 0.0 0.00 0.00 0.00 91 1021.5
20260831061523 62 218 0.0 0.0 0.00 0.00 0.00 91 1021.5
20260831060028 62 218 0.0 0.0 0.00 0.00 0.00 91 1021.7
20260831054532 62 218 0.0 0.0 0.00 0.00 0.00 91 1021.9
20260831053014 62 218 0.0 0.0 0.00 0.00 0.00 90 1021.9